Regional Weather Roundup
Issued by NWS

Home | Current Version | Previous Version | Graphics & Text | Print | Product List | Glossary Off
Versions: 1 2 3 4 5 6 7 8 9 10 11 12 13 14 15 16 17 18 19 20 21 22 23 24 25 26 27 28 29 30 31 32 33 34 35 36 37 38 39 40 41 42 43 44 45 46 47 48 49 50

000
ASUS43 KDMX 170507
RWRIA

WEATHER ROUNDUP FOR IOWA
NATIONAL WEATHER SERVICE DES MOINES IA
1100 PM CST TUE DEC 16 2014

NOTE: "FAIR" INDICATES FEW OR NO CLOUDS BELOW 12,000 FEET WITH NO
SIGNIFICANT WEATHER AND/OR OBSTRUCTIONS TO VISIBILITY.

* - THESE STATIONS ARE NOT NWS STATIONS...THUS NOT UNDER NWS
QUALITY CONTROL.  THEY ALSO DO NOT REPORT WEATHER SUCH
AS PRECIPITATION OR FOG.

IAZ001>003-012>014-020>022-031>034-043>046-170600-
   NORTHWEST IOWA

CITY           SKY/WX    TMP DP  RH WIND       PRES   REMARKS
CARROLL *      CLEAR     16  10  79 N12       30.31F WCI   3
CHEROKEE *     PTCLDY    12  10  92 NW3       30.33S
DENISON *      MOCLDY    16  12  86 N12       30.31S WCI   3
LE MARS *      CLEAR     10   9  92 CALM      30.36R
ORANGE CITY *  CLEAR     10   9  92 NW5       30.32R WCI   2
SHELDON *      CLEAR      9   7  92 NW8       30.31R WCI  -4
SIOUX CITY     MOCLDY    15  11  83 NW7       30.36S WCI   5
SPENCER        PTCLDY    12   7  80 NW7       30.31R WCI   1
STORM LAKE *   CLEAR     10   7  85 NW9       30.31S WCI  -2
$$

IAZ055>058-069>071-079>083-090>094-170600-
   SOUTHWEST IOWA

CITY           SKY/WX    TMP DP  RH WIND       PRES   REMARKS
ATLANTIC *     PTCLDY    16  12  86 NW7       30.33R WCI   6
AUDUBON *      CLEAR     18  10  73 N8        30.31S WCI   7
CLARINDA *     CLEAR     19  18  93 NW8       30.37R WCI   9
COUNCIL BLFS * CLEAR     18  16  93 NW9       30.33F WCI   6
CRESTON *      CLEAR     18  14  86 NW13      30.31R WCI   4
HARLAN  *      PTCLDY    16  14  93 N9        30.37R WCI   4
LAMONI         CLEAR     20  15  81 NW9       30.30S WCI   9
RED OAK *      CLEAR     19  16  86 N6        30.36R WCI  11
SHENANDOAH *   CLEAR     19  16  86 NW6       30.38R WCI  11
$$

IAZ047>049-059>061-072>074-084-170600-
   CENTRAL IOWA

CITY           SKY/WX    TMP DP  RH WIND       PRES   REMARKS
AMES           CLOUDY    15   8  73 NW9G18    30.32S WCI   3
ANKENY *       CLOUDY    18  12  79 NW12      30.31F WCI   5
CHARITON *     CLOUDY    23  18  80 N12       30.29S WCI  12
DES MOINES     FLURRIES  20  12  71 N15       30.31S WCI   6
GRINNELL*      FLURRIES  16  12  86 NW14      30.30R WCI   1
KNOXVILLE *    CLOUDY    21  14  73 N10G18    30.29S WCI  10
MARSHALLTOWN   FLURRIES  17  12  80 NW15      30.29R WCI   2
PELLA *        CLOUDY    19  14  79 N13       30.32S WCI   6
PERRY *        CLOUDY    16  12  86 N14       30.33R WCI   1
$$

IAZ004>006-015-016-023>025-035-036-170600-
   NORTH CENTRAL IOWA

CITY           SKY/WX    TMP DP  RH WIND       PRES   REMARKS
ALGONA *       PTCLDY    14  10  85 N10       30.30R WCI   1
CLARION *      FLURRIES  16  12  86 NW15      30.30R WCI   1
ESTHERVILLE    CLEAR     11   8  88 NW12      30.29S WCI  -3
FORT DODGE *   MOCLDY    14   7  73 NW6       30.32R WCI   5
MASON CITY     CLOUDY    16  12  84 NW15      30.27F WCI   1
FOREST CITY *  FLURRIES  18  10  73 NW12      30.26S WCI   5
IOWA FALLS *   FLURRIES  18  14  86 NW10      30.29R WCI   6
$$

IAZ007>011-017>019-026>030-037>042-050>054-066-170600-
   NORTHEAST IOWA

CITY           SKY/WX    TMP DP  RH WIND       PRES   REMARKS
CEDAR RAPIDS   CLOUDY    18  13  80 NW17      30.26R WCI   3
CHARLES CITY * CLOUDY    19  14  79 NW13      30.25S WCI   7
CLINTON *      CLOUDY    23  16  74 NW18      30.25R WCI   9
DECORAH *      CLOUDY    21  14  73 NW14G21   30.21S WCI   8
DUBUQUE        CLOUDY    21  17  84 NW13      30.19S WCI   9
MONTICELLO *   CLOUDY    23  18  80 NW16G22   30.23S WCI  10
OELWEIN *      CLOUDY    21  16  79 NW12G18   30.24S WCI   9
WATERLOO       CLOUDY    18  13  80 NW14      30.27R WCI   4
$$

IAZ064-065-067-068-078-170600-
   EAST CENTRAL IOWA

CITY           SKY/WX    TMP DP  RH WIND       PRES   REMARKS
DAVENPORT      CLOUDY    21  15  78 NW18G28   30.24R WCI   6
IOWA CITY      CLOUDY    19  13  77 NW14G20   30.29S WCI   6
MT. PLEASANT * CLOUDY    21  16  79 W12G17    30.29R WCI   9
MUSCATINE *    CLOUDY    21  16  79 NW12      30.29S WCI   9
QUAD CITIES    CLOUDY    22  15  75 NW13      30.25R WCI  10
$$

IAZ062-063-075>077-085>089-095>099-170600-
   SOUTHEAST IOWA

CITY           SKY/WX    TMP DP  RH WIND       PRES   REMARKS
BURLINGTON     CLOUDY    23  17  78 NW12      30.28R WCI  12
FAIRFIELD *    CLOUDY    21  14  73 NW17      30.29S WCI   7
FORT MADISON * CLOUDY    25  19  80 NW9G21    30.29R WCI  15
KEOKUK *       CLOUDY    27  19  74 NW9G17    30.29R WCI  17
OSKALOOSA *    CLOUDY    19  14  79 N17       30.30S WCI   4
CENTERVILLE *  CLOUDY    23  19  86 NW12      30.30S WCI  12
OTTUMWA        CLOUDY    21  14  74 N15       30.29S WCI   8
WASHINGTON *   CLOUDY    21  18  86 NW15      30.29R WCI   8
$$

ABBREVIATIONS USED IN REMARKS
   TC - TEMPERATURES IN CELSIUS
  WCI - WIND CHILL INDEX
   HX - HEAT INDEX
  VSB - VISIBILITY
$$




USA.gov is the U.S. government's official web portal to all federal, state and local government web resources and services.